This demonstration page uses our WeatherBlox Daily Observations layout. Learn more.

Hourly Observations for December 14, 2019

Temp ( °F °C ) Dew Point ( °F °C ) Humidity (%) Winds ( mph kmh ) Pressure ( in mb ) Visibility ( mi km ) Precip ( " mm )
12:54 am 00:54 Cloudy 32 0 26 -3.3 79 79 N 15 24 29.97 1015 10 16.0934 0 0
1:52 am 01:52 Cloudy 32 0 25 -4 75 75 NNW 23 37 30 1016 10 16.0934 0 0
1:54 am 01:54 Cloudy 32 0 24 -4.4 73 73 NNW 21 33 29.96 1015 10 16.0934 0 0
2:54 am 02:54 Cloudy 30 -1.1 22 -5.6 72 72 NNW 15 24 29.98 1015 10 16.0934 0 0
3:54 am 03:54 Cloudy 28 -2.2 21 -6.1 75 75 N 17 28 29.99 1016 8 12.87472 0 0
4:54 am 04:54 Cloudy 27 -2.8 20 -6.7 75 75 N 18 30 30 1016 7 11.26538 0 0
5:54 am 05:54 Cloudy 24 -4.4 16 -8.9 71 71 NNW 12 19 30.02 1017 8 12.87472 0 0
6:31 am 06:31 Cloudy 23 -5 15 -9.4 72 72 NNW 13 20 30.07 1018 8 12.87472 0 0
6:54 am 06:54 Cloudy 22 -5.6 15 -9.4 75 75 NNW 14 22 30.03 1017 8 12.87472 0 0
7:30 am 07:30 Cloudy 21 -6.1 14 -10 74 74 NNE 9 15 30.1 1019 8 12.87472 0 0
7:54 am 07:54 Cloudy 19 -7.2 12 -11.1 74 74 NNE 12 19 30.06 1018 10 16.0934 0 0
8:54 am 08:54 Cloudy 19 -7.2 12 -11.1 74 74 NNE 12 19 30.08 1019 7 11.26538 0 0
9:54 am 09:54 Cloudy 20 -6.7 12 -11.1 71 71 N 9 15 30.08 1019 9 14.48406 0 0
10:50 am 10:50 Mostly Cloudy 21 -6 12 -11 68 68 N 10 17 30.13 1020 10 16.0934 0 0
10:54 am 10:54 Mostly Cloudy 23 -5 13 -10.6 65 65 N 13 20 30.08 1019 10 16.0934 0 0
11:03 am 11:03 Mostly Cloudy 23 -5 12 -11.1 63 63 N 13 20 30.12 1020 10 16.0934 0 0
11:50 am 11:50 Partly Cloudy 23 -5 12 -11 63 63 NNW 10 17 30.12 1020 10 16.0934 0 0
11:54 am 11:54 Mostly Cloudy 23 -5 12 -11.1 63 63 NNW 8 13 30.08 1019 10 16.0934 0 0
12:16 pm 12:16 Partly Cloudy 24 -4.4 13 -10.6 62 62 NNW 7 11 30.11 1020 10 16.0934 0 0
12:54 pm 12:54 Partly Cloudy 26 -3.3 12 -11.1 55 55 WNW 8 13 30.06 1018 10 16.0934 0 0
1:54 pm 13:54 Sunny 27 -2.8 11 -11.7 51 51 NNW 8 13 30.04 1017 10 16.0934 0 0
2:54 pm 14:54 Sunny 27 -2.8 11 -11.7 51 51 N 10 17 30.03 1017 10 16.0934 0 0
3:54 pm 15:54 Sunny 26 -3.3 11 -11.7 53 53 NNW 12 19 30.04 1017 10 16.0934 0 0
4:54 pm 16:54 Sunny 23 -5 11 -11.7 60 60 N 8 13 30.04 1017 10 16.0934 0 0
5:54 pm 17:54 Mostly Cloudy 23 -5 11 -11.7 60 60 NE 10 17 30.05 1018 10 16.0934 0 0
6:54 pm 18:54 Cloudy 22 -5.6 11 -11.7 63 63 NE 10 17 30.06 1018 10 16.0934 0 0
7:54 pm 19:54 Cloudy 21 -6.1 11 -11.7 65 65 NNE 9 15 30.08 1019 10 16.0934 0 0
8:54 pm 20:54 Cloudy 21 -6.1 11 -11.7 65 65 NE 7 11 30.09 1019 10 16.0934 0 0
9:54 pm 21:54 Cloudy 20 -6.7 10 -12.2 65 65 NNE 8 13 30.09 1019 10 16.0934 0 0
10:54 pm 22:54 Cloudy 20 -6.7 11 -11.7 68 68 NE 8 13 30.09 1019 10 16.0934 0 0
11:54 pm 23:54 Cloudy 19 -7.2 10 -12.2 68 68 NNE 10 17 30.1 1019 10 16.0934 0 0

Powered by AerisWeather